New Roads False River Regiona, LA

7:13 AM CST on December 15, 2019 (GMT -0600)
False River

Weather History for KHZR - August, 2019

Change the Weather History Date:

Friday, August 9, 2019

  Actual Average (KBTR) Record (KBTR)
Temperature  
Mean Temperature 84 °F -  
Max Temperature 93 °F 90 °F 102 °F (1962)
Min Temperature 75 °F 71 °F 60 °F (1989)
Cooling Degree Days 19    
Growing Degree Days 34 (Base 50)    
Moisture  
Dew Point 76 °F    
Average Humidity 78    
Maximum Humidity 100    
Minimum Humidity 55    
Precipitation  
Precipitation 0.00 in - - ()
Sea Level Pressure  
Sea Level Pressure 29.97 in    
Wind  
Wind Speed 2 mph (WSW)    
Max Wind Speed 9 mph    
Max Gust Speed -    
Visibility 9 miles    
Events      
Averages and records for this station are not official NWS values.
T = Trace of Precipitation, MM = Missing Value Source: NWS Daily Summary

Daily Weather History Graph

Daily Weather History Graph

Search for Another Location

Airport or City:

Astronomy

Aug. 09, 2019 Rise Set
Actual Time 6:28 AM CDT 7:53 PM CDT
Civil Twilight 6:02 AM CDT 8:19 PM CDT
Nautical Twilight 5:32 AM CDT 8:50 PM CDT
Astronomical Twilight 5:00 AM CDT 9:22 PM CDT
Moon 3:30 PM CDT (8/9) 1:28 AM CDT (8/9)
Length of Visible Light 14h 16m
Length of Day
13h 25m
Waxing Gibbous, 70% of the Moon is Illuminated
Aug 9
Waxing Gibbous
Aug 15
Full
Aug 23
Last Quarter
Aug 30
New
Sep 5
First Quarter

Hourly Weather History & Observations

Time (CDT) Temp. Heat Index Dew Point Humidity Pressure Visibility Wind Dir Wind Speed Gust Speed Precip Events Conditions
12:15 AM 78.8 °F - 75.2 °F 89% 29.97 in 10.0 mi Calm Calm - N/A   Clear
12:36 AM 78.8 °F - 75.2 °F 89% 29.97 in 10.0 mi Calm Calm - N/A   Clear
12:56 AM 78.8 °F - 75.2 °F 89% 29.97 in 10.0 mi Calm Calm - N/A   Scattered Clouds
1:15 AM 77.0 °F - 75.2 °F 94% 29.95 in 10.0 mi Calm Calm - N/A   Clear
1:38 AM 77.0 °F - 75.2 °F 94% 29.96 in 10.0 mi Calm Calm - N/A   Clear
2:36 AM 75.2 °F - 75.2 °F 100% 29.96 in 10.0 mi Calm Calm - N/A   Clear
3:16 AM 75.2 °F - 75.2 °F 100% 29.95 in 10.0 mi Calm Calm - N/A   Clear
3:36 AM 75.2 °F - 75.2 °F 100% 29.95 in 10.0 mi Calm Calm - N/A   Clear
3:56 AM 75.2 °F - 75.2 °F 100% 29.96 in 10.0 mi Calm Calm - N/A   Clear
4:16 AM 75.2 °F - 75.2 °F 100% 29.95 in 10.0 mi Calm Calm - N/A   Clear
4:36 AM 75.2 °F - 75.2 °F 100% 29.95 in 10.0 mi Calm Calm - N/A   Clear
4:56 AM 75.2 °F - 75.2 °F 100% 29.96 in 7.0 mi Calm Calm - N/A   Clear
5:16 AM 75.2 °F - 75.2 °F 100% 29.96 in 7.0 mi Calm Calm - N/A   Clear
5:36 AM 75.2 °F - 75.2 °F 100% 29.97 in 4.0 mi Calm Calm - N/A   Scattered Clouds
5:58 AM 75.2 °F - 75.2 °F 100% 29.97 in 7.0 mi Calm Calm - N/A   Mostly Cloudy
6:16 AM 75.2 °F - 75.2 °F 100% 29.97 in 5.0 mi Calm Calm - N/A   Scattered Clouds
6:36 AM 75.2 °F - 75.2 °F 100% 29.98 in 4.0 mi Calm Calm - N/A   Mostly Cloudy
6:56 AM 75.2 °F - 75.2 °F 100% 29.99 in 5.0 mi Calm Calm - N/A   Clear
7:16 AM 77.0 °F - 77.0 °F 100% 30.00 in 4.0 mi Calm Calm - N/A   Clear
7:36 AM 78.8 °F - 78.8 °F 100% - 5.0 mi Calm Calm - N/A   Clear
7:56 AM 78.8 °F - 78.8 °F 100% 30.00 in 5.0 mi Calm Calm - N/A   Clear
8:16 AM 80.6 °F 88.1 °F 78.8 °F 94% 30.01 in 7.0 mi Calm Calm - N/A   Clear
8:36 AM 82.4 °F 94.0 °F 80.6 °F 94% 30.01 in 10.0 mi WSW 4.6 mph - N/A   Clear
8:55 AM 82.4 °F 94.0 °F 80.6 °F 94% 30.01 in 10.0 mi SW 4.6 mph - N/A   Clear
9:35 AM 84.2 °F 96.1 °F 78.8 °F 84% 30.01 in 10.0 mi WSW 6.9 mph - N/A   Mostly Cloudy
9:56 AM 86.0 °F 99.3 °F 78.8 °F 79% 30.01 in 10.0 mi West 8.1 mph - N/A   Mostly Cloudy
10:16 AM 87.8 °F 99.7 °F 77.0 °F 70% 30.02 in 10.0 mi West 8.1 mph - N/A   Mostly Cloudy
10:56 AM 87.8 °F 99.7 °F 77.0 °F 70% 30.02 in 10.0 mi SW 9.2 mph - N/A   Mostly Cloudy
11:16 AM 89.6 °F 99.8 °F 75.2 °F 62% 30.02 in 10.0 mi SW 8.1 mph - N/A   Scattered Clouds
11:36 AM 89.6 °F 99.8 °F 75.2 °F 62% 30.02 in 10.0 mi WSW 8.1 mph - N/A   Scattered Clouds
11:56 AM 89.6 °F 99.8 °F 75.2 °F 62% 30.02 in 10.0 mi SW 8.1 mph - N/A   Scattered Clouds
12:15 PM 89.6 °F 98.2 °F 73.4 °F 59% 30.02 in 10.0 mi West 5.8 mph - N/A   Scattered Clouds
12:36 PM 91.4 °F 100.1 °F 73.4 °F 55% 30.01 in 10.0 mi West 8.1 mph - N/A   Clear
12:58 PM 89.6 °F 99.8 °F 75.2 °F 62% 30.00 in 10.0 mi West 4.6 mph - N/A   Clear
1:16 PM 91.4 °F 102.5 °F 75.2 °F 59% 30.00 in 10.0 mi WSW 5.8 mph - N/A   Mostly Cloudy
1:37 PM 89.6 °F 99.8 °F 75.2 °F 62% 29.99 in 10.0 mi WNW 3.5 mph - N/A   Scattered Clouds
1:56 PM 91.4 °F 102.5 °F 75.2 °F 59% 29.99 in 10.0 mi WNW 6.9 mph - N/A   Scattered Clouds
2:16 PM 91.4 °F 102.5 °F 75.2 °F 59% 29.98 in 10.0 mi NW 4.6 mph - N/A   Scattered Clouds
2:36 PM 91.4 °F 102.5 °F 75.2 °F 59% 29.97 in 10.0 mi WSW 3.5 mph - N/A   Scattered Clouds
2:56 PM 91.4 °F 102.5 °F 75.2 °F 59% 29.97 in 10.0 mi Calm Calm - N/A   Scattered Clouds
3:16 PM 93.2 °F 105.0 °F 75.2 °F 56% 29.96 in 10.0 mi West 4.6 mph - N/A   Scattered Clouds
3:36 PM 93.2 °F 105.0 °F 75.2 °F 56% 29.94 in 10.0 mi WSW 3.5 mph - N/A   Scattered Clouds
3:56 PM 93.2 °F 105.0 °F 75.2 °F 56% 29.94 in 10.0 mi WSW 5.8 mph - N/A   Mostly Cloudy
4:16 PM 93.2 °F 105.0 °F 75.2 °F 56% 29.94 in 10.0 mi West 3.5 mph - N/A   Scattered Clouds
4:36 PM 91.4 °F 102.5 °F 75.2 °F 59% 29.93 in 10.0 mi West 3.5 mph - N/A   Scattered Clouds
4:58 PM 93.2 °F 105.0 °F 75.2 °F 56% 29.93 in 10.0 mi West 4.6 mph - N/A   Mostly Cloudy
5:16 PM 91.4 °F 102.5 °F 75.2 °F 59% 29.94 in 10.0 mi Calm Calm - N/A   Mostly Cloudy
5:36 PM 91.4 °F 102.5 °F 75.2 °F 59% 29.94 in 10.0 mi WSW 3.5 mph - N/A   Scattered Clouds
5:57 PM 91.4 °F 102.5 °F 75.2 °F 59% 29.94 in 10.0 mi SSW 4.6 mph - N/A   Scattered Clouds
6:16 PM 91.4 °F 102.5 °F 75.2 °F 59% 29.94 in 10.0 mi SW 6.9 mph - N/A   Scattered Clouds
6:35 PM 89.6 °F 102.2 °F 77.0 °F 66% 29.95 in 10.0 mi SSW 4.6 mph - N/A   Scattered Clouds
6:56 PM 89.6 °F 104.7 °F 78.8 °F 70% 29.94 in 10.0 mi SSW 3.5 mph - N/A   Mostly Cloudy
7:16 PM 89.6 °F 104.7 °F 78.8 °F 70% 29.94 in 10.0 mi SSW 3.5 mph - N/A   Scattered Clouds
7:36 PM 87.8 °F 99.7 °F 77.0 °F 70% 29.95 in 10.0 mi SSW 4.6 mph - N/A   Clear
7:56 PM 87.8 °F 99.7 °F 77.0 °F 70% 29.94 in 10.0 mi SSW 4.6 mph - N/A   Clear
8:16 PM 86.0 °F 96.9 °F 77.0 °F 74% 29.94 in 10.0 mi SSW 4.6 mph - N/A   Clear
8:36 PM 84.2 °F 92.3 °F 75.2 °F 74% 29.94 in 10.0 mi South 4.6 mph - N/A   Clear
8:56 PM 84.2 °F 92.3 °F 75.2 °F 74% 29.94 in 10.0 mi South 3.5 mph - N/A   Clear
9:17 PM 82.4 °F 89.5 °F 75.2 °F 79% 29.95 in 10.0 mi South 4.6 mph - N/A   Clear
9:36 PM 82.4 °F 89.5 °F 75.2 °F 79% 29.96 in 7.0 mi Calm Calm - N/A   Clear
9:57 PM 82.4 °F 89.5 °F 75.2 °F 79% 29.96 in 10.0 mi South 4.6 mph - N/A   Mostly Cloudy
10:17 PM 82.4 °F 89.5 °F 75.2 °F 79% 29.97 in 10.0 mi South 3.5 mph - N/A   Mostly Cloudy
11:16 PM 80.6 °F 86.2 °F 75.2 °F 84% 29.97 in 10.0 mi Calm Calm - N/A   Clear
11:36 PM 80.6 °F 87.1 °F 77.0 °F 89% 29.97 in 10.0 mi Calm Calm - N/A   Clear
11:58 PM 78.8 °F - 77.0 °F 94% 29.97 in 10.0 mi Calm Calm - N/A   Clear